Regional Weather Roundup
Issued by NWS

Home | Current Version | Previous Version | Text Only | Print | Product List | Glossary Off
Versions: 1 2 3 4 5 6 7 8 9 10 11 12 13 14 15 16 17 18 19 20 21 22 23 24 25 26 27

000
ASUS45 KCYS 222010
RWRWY

WYOMING REGIONAL WEATHER ROUNDUP
NATIONAL WEATHER SERVICE CHEYENNE WY
200 PM MDT SAT JUL 22 2017

NOTE:  "FAIR" INDICATES FEW OR NO CLOUDS BELOW 12,000 FEET
WITH NO SIGNIFICANT WEATHER AND/OR OBSTRUCTIONS TO VISIBILITY.

WYZ001-222100-
YELLOWSTONE NATIONAL PARK

CITY           SKY/WX    TMP DP  RH WIND       PRES   REMARKS
LK YELLOWSTONE   N/A     70  40  33 VRB5      30.41F
W YELLOWSTONE  NOT AVBL

$$
WYZ002>013-054>058-071-098>099-222100-
NORTHERN WYOMING

CITY           SKY/WX    TMP DP  RH WIND       PRES   REMARKS
JACKSON        SUNNY     81  34  18 SW6       30.30F
CODY           FAIR      81  36  19 N7        30.20F
GREYBULL       FAIR      89  32  13 CALM      30.10F
WORLAND        FAIR      89  34  14 MISG      30.13F
SHERIDAN       FAIR      88  32  13 NE6       30.15F
BUFFALO        FAIR      83  28  13 CALM      30.21F
GILLETTE       FAIR      88  26  10 CALM      30.15F
HULETT         FAIR      86  32  14 CALM      30.16S
NEWCASTLE      FAIR      90  32  12 NW10G23   30.12F

$$
WYZ014>020-022>026-101>103-222100-
CENTRAL WYOMING

CITY           SKY/WX    TMP DP  RH WIND       PRES   REMARKS
BIG PINEY      FAIR      81  32  17 S8        30.34F
PINEDALE       FAIR      81  30  16 N9G21     30.35F
DUBOIS         FAIR      79  25  13 W20G30    30.33S
LANDER         FAIR      86  30  13 CALM      30.20F
RIVERTON       FAIR      86  28  12 E10       30.21F
CASPER         FAIR      88  30  12 N12G17    30.20F
DOUGLAS        FAIR      90  43  19 NE10G17   30.16F

$$
WYZ021-027>030-104>119-222100-
SOUTHERN WYOMING

CITY           SKY/WX    TMP DP  RH WIND       PRES   REMARKS
EVANSTON       FAIR      84  32  15 VRB3      30.33F
KEMMERER         N/A     82  27  13 W10       30.36F
FORT BRIDGER   FAIR      84  27  12 S5        30.36F
ROCK SPRINGS   FAIR      84  24  11 VRB3      30.32F
RAWLINS        FAIR      83  30  14 VRB7      30.31F
SARATOGA       FAIR      81  28  15 NW14G22   30.33F
LARAMIE        FAIR      81  27  14 N16G28    30.32S
CHEYENNE       CLOUDY    77  52  41 S17       30.24S
TORRINGTON     FAIR      90  45  21 VRB5      30.09F
PINE BLUFFS    FAIR      86  46  25 SE14      30.18S

$$




USA.gov is the U.S. government's official web portal to all federal, state and local government web resources and services.